| time (UTC) | temp C | wind direction | speed KPH | gust KPH | rain 1hr cm | rain 24hr cm | rain mn cm | humidity % | barometer mb |
| 20260502211034 | 16 | 90 | 1.6 | 1.6 | 0.00 | 0.00 | 0.00 | 65 | 1016.6 |
| 20260502205531 | 16 | 122 | 1.6 | 3.2 | 0.00 | 0.00 | 0.00 | 64 | 1016.5 |
| 20260502204509 | 17 | 90 | 1.6 | 3.2 | 0.00 | 0.00 | 0.00 | 63 | 1016.6 |
| 20260502203506 | 17 | 90 | 1.6 | 1.6 | 0.00 | 0.00 | 0.00 | 63 | 1016.5 |
| 20260502202505 | 17 | 90 | 1.6 | 1.6 | 0.00 | 0.00 | 0.00 | 62 | 1016.4 |
| 20260502201522 | 17 | 90 | 1.6 | 3.2 | 0.00 | 0.00 | 0.00 | 60 | 1016.3 |
| 20260502200502 | 18 | 90 | 1.6 | 1.6 | 0.00 | 0.00 | 0.00 | 59 | 1016.2 |
| 20260502195519 | 18 | 90 | 1.6 | 1.6 | 0.00 | 0.00 | 0.00 | 58 | 1016.1 |
| 20260502194457 | 18 | 90 | 1.6 | 1.6 | 0.00 | 0.00 | 0.00 | 58 | 1016.1 |
| 20260502193455 | 18 | 90 | 1.6 | 1.6 | 0.00 | 0.00 | 0.00 | 57 | 1016.0 |
| 20260502192452 | 18 | 90 | 1.6 | 3.2 | 0.00 | 0.00 | 0.00 | 57 | 1016.0 |
| 20260502191451 | 18 | 90 | 1.6 | 3.2 | 0.00 | 0.00 | 0.00 | 58 | 1015.9 |
| 20260502190451 | 19 | 90 | 1.6 | 3.2 | 0.00 | 0.00 | 0.00 | 59 | 1015.9 |
| 20260502185447 | 19 | 90 | 1.6 | 1.6 | 0.00 | 0.00 | 0.00 | 58 | 1015.8 |
| 20260502184446 | 20 | 90 | 1.6 | 1.6 | 0.00 | 0.00 | 0.00 | 57 | 1015.6 |
| 20260502183444 | 20 | 90 | 1.6 | 3.2 | 0.00 | 0.00 | 0.00 | 57 | 1015.6 |
| 20260502182442 | 20 | 142 | 1.6 | 3.2 | 0.00 | 0.00 | 0.00 | 57 | 1015.5 |
| 20260502181440 | 20 | 90 | 1.6 | 3.2 | 0.00 | 0.00 | 0.00 | 58 | 1015.5 |
| 20260502180437 | 20 | 90 | 1.6 | 3.2 | 0.00 | 0.00 | 0.00 | 58 | 1015.5 |
| 20260502170424 | 22 | 90 | 1.6 | 1.6 | 0.00 | 0.00 | 0.00 | 50 | 1015.2 |
| 20260502163420 | 22 | 18 | 1.6 | 1.6 | 0.00 | 0.00 | 0.00 | 47 | 1015.5 |
| 20260502162417 | 22 | 45 | 1.6 | 3.2 | 0.00 | 0.00 | 0.00 | 48 | 1015.8 |
| 20260502161414 | 22 | 24 | 1.6 | 3.2 | 0.00 | 0.00 | 0.00 | 48 | 1015.8 |
| 20260502160414 | 22 | 90 | 1.6 | 3.2 | 0.00 | 0.00 | 0.00 | 47 | 1015.9 |
| 20260502151403 | 22 | 90 | 1.6 | 4.8 | 0.00 | 0.00 | 0.00 | 48 | 1016.4 |
| 20260502150401 | 22 | 45 | 1.6 | 6.4 | 0.00 | 0.00 | 0.00 | 48 | 1016.5 |
| 20260502130337 | 21 | 33 | 1.6 | 3.2 | 0.00 | 0.00 | 0.00 | 53 | 1018.5 |
| 20260502123351 | 21 | 90 | 1.6 | 6.4 | 0.00 | 0.00 | 0.00 | 54 | 1018.8 |
| 20260502122350 | 21 | 56 | 1.6 | 1.6 | 0.00 | 0.00 | 0.00 | 55 | 1018.9 |
| 20260502121327 | 20 | 39 | 1.6 | 1.6 | 0.00 | 0.00 | 0.00 | 55 | 1019.2 |
| 20260502120324 | 20 | 90 | 1.6 | 4.8 | 0.00 | 0.00 | 0.00 | 56 | 1019.4 |
| 20260502115322 | 20 | 37 | 1.6 | 3.2 | 0.00 | 0.00 | 0.00 | 56 | 1019.5 |
| 20260502114341 | 20 | 90 | 1.6 | 3.2 | 0.00 | 0.00 | 0.00 | 57 | 1019.6 |
| 20260502113319 | 20 | 45 | 1.6 | 3.2 | 0.00 | 0.00 | 0.00 | 56 | 1019.8 |
| 20260502112318 | 20 | 50 | 1.6 | 3.2 | 0.00 | 0.00 | 0.00 | 56 | 1019.9 |
| 20260502111338 | 20 | 45 | 1.6 | 3.2 | 0.00 | 0.00 | 0.00 | 56 | 1020.1 |
| 20260502110313 | 19 | 45 | 1.6 | 3.2 | 0.00 | 0.00 | 0.00 | 56 | 1020.2 |
| 20260502105311 | 19 | 90 | 1.6 | 3.2 | 0.00 | 0.00 | 0.00 | 57 | 1020.3 |
| 20260502104309 | 19 | 60 | 1.6 | 3.2 | 0.00 | 0.00 | 0.00 | 58 | 1020.5 |
| 20260502103307 | 18 | 90 | 1.6 | 3.2 | 0.00 | 0.00 | 0.00 | 57 | 1020.7 |
| 20260502102306 | 18 | 60 | 1.6 | 3.2 | 0.00 | 0.00 | 0.00 | 56 | 1020.8 |
| 20260502101303 | 18 | 90 | 1.6 | 3.2 | 0.00 | 0.00 | 0.00 | 56 | 1021.0 |
| 20260502100301 | 18 | 29 | 1.6 | 3.2 | 0.00 | 0.00 | 0.00 | 56 | 1021.1 |
| 20260502091253 | 16 | 90 | 1.6 | 3.2 | 0.00 | 0.00 | 0.00 | 58 | 1021.8 |
| 20260502090310 | 16 | 90 | 1.6 | 3.2 | 0.00 | 0.00 | 0.00 | 59 | 1021.9 |
| 20260502071238 | 12 | 40 | 1.6 | 3.2 | 0.00 | 0.00 | 0.00 | 65 | 1022.5 |
| 20260502070224 | 12 | 38 | 1.6 | 3.2 | 0.00 | 0.00 | 0.00 | 65 | 1022.5 |
| 20260502065223 | 12 | 20 | 1.6 | 3.2 | 0.00 | 0.00 | 0.00 | 65 | 1022.5 |
| 20260502064221 | 12 | 37 | 1.6 | 3.2 | 0.00 | 0.00 | 0.00 | 65 | 1022.5 |
| 20260502063218 | 12 | 29 | 1.6 | 1.6 | 0.00 | 0.00 | 0.00 | 66 | 1022.5 |
| 20260502062217 | 12 | 45 | 1.6 | 1.6 | 0.00 | 0.00 | 0.00 | 66 | 1022.5 |
| 20260502061215 | 12 | 45 | 1.6 | 1.6 | 0.00 | 0.00 | 0.00 | 65 | 1022.6 |
| 20260502060213 | 11 | 39 | 1.6 | 3.2 | 0.00 | 0.00 | 0.00 | 67 | 1022.6 |
| 20260502055231 | 10 | 45 | 1.6 | 3.2 | 0.00 | 0.00 | 0.00 | 68 | 1022.6 |
| 20260502054210 | 10 | 56 | 1.6 | 1.6 | 0.00 | 0.00 | 0.00 | 68 | 1022.6 |
| 20260502053207 | 10 | 45 | 1.6 | 1.6 | 0.00 | 0.00 | 0.00 | 69 | 1022.5 |
| 20260502052205 | 10 | 90 | 1.6 | 1.6 | 0.00 | 0.00 | 0.00 | 69 | 1022.5 |
| 20260502051222 | 10 | 55 | 1.6 | 1.6 | 0.00 | 0.00 | 0.00 | 69 | 1022.3 |
| 20260502050201 | 10 | 49 | 1.6 | 1.6 | 0.00 | 0.00 | 0.00 | 68 | 1022.3 |
| 20260502045158 | 10 | 59 | 1.6 | 3.2 | 0.00 | 0.00 | 0.00 | 69 | 1022.2 |
| 20260502044157 | 9 | 90 | 1.6 | 1.6 | 0.00 | 0.00 | 0.00 | 69 | 1022.2 |
| 20260502043154 | 9 | 90 | 1.6 | 3.2 | 0.00 | 0.00 | 0.00 | 69 | 1022.2 |
| 20260502042153 | 9 | 90 | 1.6 | 1.6 | 0.00 | 0.00 | 0.00 | 69 | 1022.2 |
| 20260502041151 | 9 | 90 | 1.6 | 1.6 | 0.00 | 0.00 | 0.00 | 69 | 1022.1 |
| 20260502040151 | 9 | 90 | 1.6 | 1.6 | 0.00 | 0.00 | 0.00 | 69 | 1022.1 |
| 20260502035207 | 9 | 90 | 1.6 | 1.6 | 0.00 | 0.00 | 0.00 | 69 | 1022.2 |
| 20260502034145 | 9 | 90 | 1.6 | 1.6 | 0.00 | 0.00 | 0.00 | 69 | 1022.2 |
| 20260502033143 | 10 | 90 | 1.6 | 1.6 | 0.00 | 0.00 | 0.00 | 69 | 1022.2 |
| 20260502032202 | 10 | 90 | 1.6 | 3.2 | 0.00 | 0.00 | 0.00 | 68 | 1022.1 |
| 20260502031159 | 10 | 90 | 1.6 | 3.2 | 0.00 | 0.00 | 0.00 | 68 | 1022.2 |
| 20260502030136 | 10 | 90 | 1.6 | 1.6 | 0.00 | 0.00 | 0.00 | 68 | 1022.3 |
| 20260502025136 | 10 | 90 | 1.6 | 3.2 | 0.00 | 0.00 | 0.00 | 68 | 1022.2 |
| 20260502024133 | 10 | 90 | 1.6 | 1.6 | 0.00 | 0.00 | 0.00 | 67 | 1022.0 |
| 20260502023151 | 10 | 90 | 1.6 | 1.6 | 0.00 | 0.00 | 0.00 | 67 | 1022.1 |
| 20260502022130 | 10 | 90 | 1.6 | 1.6 | 0.00 | 0.00 | 0.00 | 68 | 1022.1 |
| 20260502021128 | 10 | 90 | 1.6 | 3.2 | 0.00 | 0.00 | 0.00 | 68 | 1022.1 |
| 20260502020125 | 10 | 90 | 1.6 | 1.6 | 0.00 | 0.00 | 0.00 | 67 | 1022.1 |
| 20260502015143 | 10 | 90 | 1.6 | 3.2 | 0.00 | 0.00 | 0.00 | 68 | 1022.1 |
| 20260502014121 | 10 | 90 | 1.6 | 3.2 | 0.00 | 0.00 | 0.00 | 68 | 1022.1 |
| 20260502013119 | 10 | 90 | 1.6 | 1.6 | 0.00 | 0.00 | 0.00 | 68 | 1022.2 |
| 20260502012117 | 10 | 90 | 1.6 | 1.6 | 0.00 | 0.00 | 0.00 | 68 | 1022.2 |
| 20260502011115 | 10 | 90 | 1.6 | 3.2 | 0.00 | 0.00 | 0.00 | 67 | 1022.2 |
| 20260502010124 | 10 | 90 | 1.6 | 3.2 | 0.00 | 0.00 | 0.00 | 67 | 1022.2 |
| 20260502005116 | 10 | 90 | 1.6 | 3.2 | 0.00 | 0.00 | 0.00 | 67 | 1022.2 |
| 20260502004130 | 11 | 90 | 1.6 | 3.2 | 0.00 | 0.00 | 0.00 | 67 | 1022.2 |
| 20260502003108 | 11 | 90 | 1.6 | 3.2 | 0.00 | 0.00 | 0.00 | 67 | 1022.2 |
| 20260502002105 | 11 | 90 | 1.6 | 3.2 | 0.00 | 0.00 | 0.00 | 67 | 1022.2 |
| 20260502001122 | 11 | 90 | 1.6 | 3.2 | 0.00 | 0.00 | 0.00 | 67 | 1022.3 |
| 20260502000100 | 11 | 108 | 1.6 | 3.2 | 0.00 | 0.00 | 0.00 | 66 | 1022.6 |
| 20260501235100 | 11 | 107 | 1.6 | 3.2 | 0.00 | 0.00 | 0.00 | 66 | 1022.5 |
| 20260501234058 | 11 | 107 | 1.6 | 3.2 | 0.00 | 0.00 | 0.00 | 66 | 1022.5 |
| 20260501233056 | 11 | 90 | 1.6 | 3.2 | 0.00 | 0.00 | 0.00 | 65 | 1022.5 |